Hamilton Island, Australia

5:51 PM AEST on July 25, 2017 (GMT +1000)
Hamilton Island

Weather History for YBHM - July, 2013

Change the Weather History Date:

Thursday, July 18, 2013

  Actual Average Record
Temperature  
Mean Temperature 70 °F -  
Max Temperature 73 °F - - ()
Min Temperature 68 °F - - ()
Cooling Degree Days 6    
Growing Degree Days 20 (Base 50)    
Moisture  
Dew Point 67 °F    
Average Humidity 88    
Maximum Humidity 94    
Minimum Humidity 78    
Precipitation  
Precipitation 0.00 in - - ()
Sea Level Pressure  
Sea Level Pressure 30.06 in    
Wind  
Wind Speed 20 mph ()    
Max Wind Speed 38 mph    
Max Gust Speed -    
T = Trace of Precipitation, MM = Missing Value Source: Averaged Metar Reports

Daily Weather History Graph

Daily Weather History Graph

Search for Another Location

Airport or City:

Trip Planner

Search our weather history database for the weather conditions in past years. The results will help you decide how hot, cold, wet, or windy it might be!

Date:

Astronomy

Jul. 18, 2013 Rise Set
Actual Time 6:39 AM AEST 5:41 PM AEST
Civil Twilight 6:15 AM AEST 6:05 PM AEST
Nautical Twilight 5:48 AM AEST 6:32 PM AEST
Astronomical Twilight 5:21 AM AEST 6:59 PM AEST
Moon 1:10 PM AEST (7/18) 1:34 AM AEST (7/18)
Length of Visible Light 11h 49m
Length of Day
11h 02m
Waxing Gibbous, 71% of the Moon is Illuminated
Jul 18
Waxing Gibbous
Jul 23
Full
Jul 30
Last Quarter
Aug 7
New
Aug 14
First Quarter

Hourly Weather History & Observations

Time (AEST) Temp. Dew Point Humidity Pressure Visibility Wind Dir Wind Speed Gust Speed Precip Events Conditions
12:00 AM 69 °F 67 °F 89% 30.08 in - ESE 38.0 mph - -  
12:00 AM 69.8 °F 66.2 °F 88% 30.06 in - ESE 19.6 mph - N/A   Unknown
12:30 AM 69.8 °F 66.2 °F 88% 30.06 in - ESE 20.7 mph - N/A   Unknown
1:00 AM 69.8 °F 66.2 °F 88% 30.06 in - ESE 20.7 mph - N/A   Unknown
1:30 AM 69.8 °F 66.2 °F 88% 30.06 in - ESE 18.4 mph - N/A   Unknown
2:00 AM 68.0 °F 66.2 °F 94% 30.04 in - ESE 18.4 mph - N/A   Unknown
2:30 AM 69.8 °F 66.2 °F 88% 30.04 in - ESE 18.4 mph - N/A   Unknown
3:00 AM 69 °F 66 °F 86% 30.04 in - ESE 21.9 mph - -  
3:00 AM 69.8 °F 66.2 °F 88% 30.04 in - ESE 21.9 mph - N/A   Unknown
3:30 AM 69.8 °F 66.2 °F 88% 30.04 in - ESE 18.4 mph - N/A   Unknown
4:00 AM 69.8 °F 66.2 °F 88% 30.04 in - ESE 20.7 mph - N/A   Unknown
4:30 AM 69.8 °F 66.2 °F 88% 30.04 in - ESE 21.9 mph - N/A   Unknown
5:00 AM 69.8 °F 66.2 °F 88% 30.04 in - ESE 18.4 mph - N/A   Unknown
5:30 AM 69.8 °F 66.2 °F 88% 30.04 in - ESE 24.2 mph - N/A   Unknown
6:00 AM 70 °F 66 °F 84% 30.06 in - ESE 21.9 mph - -  
6:00 AM 69.8 °F 66.2 °F 88% 30.04 in - ESE 21.9 mph - N/A   Unknown
6:30 AM 69.8 °F 66.2 °F 88% 30.06 in - ESE 23.0 mph - N/A   Unknown
7:00 AM 69.8 °F 66.2 °F 88% 30.06 in - ESE 23.0 mph - N/A   Unknown
7:30 AM 69.8 °F 66.2 °F 88% 30.06 in - ESE 21.9 mph - N/A   Unknown
8:00 AM 69.8 °F 66.2 °F 88% 30.06 in - ESE 21.9 mph - N/A   Unknown
8:30 AM 71.6 °F 66.2 °F 83% 30.06 in - ESE 21.9 mph - N/A   Unknown
9:00 AM 71 °F 66 °F 78% 30.10 in - ESE 21.9 mph - -  
9:00 AM 71.6 °F 66.2 °F 83% 30.09 in - ESE 21.9 mph - N/A   Unknown
9:30 AM 73.4 °F 68.0 °F 83% 30.09 in - ESE 23.0 mph - N/A   Unknown
10:00 AM 71.6 °F 66.2 °F 83% 30.09 in - ESE 23.0 mph - N/A   Unknown
10:30 AM 73.4 °F 68.0 °F 83% 30.09 in - ESE 21.9 mph - N/A   Unknown
11:00 AM 73.4 °F 68.0 °F 83% 30.09 in - ESE 20.7 mph - N/A   Unknown
11:30 AM 73.4 °F 68.0 °F 83% 30.09 in - ESE 20.7 mph - N/A   Unknown
12:00 PM 73.4 °F 68.0 °F 83% 30.06 in - ESE 19.6 mph - N/A   Unknown
12:30 PM 71.6 °F 68.0 °F 88% 30.06 in - ESE 19.6 mph - N/A   Unknown
1:00 PM 71.6 °F 68.0 °F 88% 30.04 in - ESE 19.6 mph - N/A   Unknown
1:30 PM 71.6 °F 68.0 °F 88% 30.04 in - ESE 19.6 mph - N/A   Unknown
2:00 PM 71.6 °F 68.0 °F 88% 30.04 in - ESE 17.3 mph - N/A   Unknown
2:30 PM 71.6 °F 66.2 °F 83% 30.04 in - SE 16.1 mph - N/A   Unknown
3:00 PM 71 °F 68 °F 86% 30.03 in - SE 17.3 mph - -  
3:00 PM 71.6 °F 68.0 °F 88% 30.04 in - SE 17.3 mph - N/A   Unknown
3:30 PM 69.8 °F 66.2 °F 88% 30.04 in - SSE 15.0 mph - N/A   Unknown
4:00 PM 69.8 °F 68.0 °F 94% 30.04 in - SE 16.1 mph - N/A   Unknown
4:30 PM 69.8 °F 66.2 °F 88% 30.04 in - SE 16.1 mph - N/A   Unknown
5:00 PM 69.8 °F 66.2 °F 88% 30.04 in - SE 18.4 mph - N/A   Unknown
5:30 PM 69.8 °F 68.0 °F 94% 30.04 in - SE 18.4 mph - N/A   Unknown
6:30 PM 69.8 °F 66.2 °F 88% 30.04 in - SE 17.3 mph - N/A   Unknown
7:00 PM 69.8 °F 66.2 °F 88% 30.06 in - SE 17.3 mph - N/A   Unknown
7:30 PM 69.8 °F 66.2 °F 88% 30.06 in - ESE 19.6 mph - N/A   Unknown
8:00 PM 69.8 °F 68.0 °F 94% 30.06 in - ESE 17.3 mph - N/A   Unknown
9:00 PM 70 °F 67 °F 87% 30.08 in - ESE 18.4 mph - -  
9:00 PM 69.8 °F 66.2 °F 88% 30.06 in - ESE 18.4 mph - N/A   Unknown
9:30 PM 69.8 °F 68.0 °F 94% 30.06 in - ESE 15.0 mph - N/A   Unknown
10:00 PM 69.8 °F 68.0 °F 94% 30.06 in - ESE 18.4 mph - N/A   Unknown
10:30 PM 69.8 °F 68.0 °F 94% 30.06 in - ESE 18.4 mph - N/A   Unknown
11:00 PM 69.8 °F 68.0 °F 94% 30.06 in - SE 18.4 mph - N/A   Unknown
11:30 PM 69.8 °F 68.0 °F 94% 30.06 in - SE 18.4 mph - N/A   Unknown